Location: City of Moscow
(46.7306°N, 116.9989°W)
Time: 02:46:30
(UTC+00:00)

Cosmos 1626 Rocket - Pass Details

Date: 21 March 2026
Orbit: 596 x 624 km, 82.5° (Epoch: 13 April)

Event Time Altitude Azimuth Distance (km) Brightness Sun altitude
Rises 12:39:54 0° 339° (NNW) 2,885 6.9 -12.5°
Reaches altitude 10° 12:42:27 10° 326° (NW) 1,970 5.9 -12.1°
Maximum altitude 12:45:57 24° 272° (W) 1,256 4.6 -11.5°
Drops below altitude 10° 12:49:26 10° 218° (SW) 1,943 5.7 -10.9°
Sets 12:51:55 0° 205° (SSW) 2,836 6.6 -10.5°
